Weather History for Nassau, Bahamas

Change the Weather History Date:

Tuesday, December 17, 2013

  Actual Average Record
Temperature  
Mean Temperature 78 °F -  
Max Temperature 82 °F 78 °F 84 °F (2003)
Min Temperature 73 °F 63 °F 57 °F (2010)
Cooling Degree Days 12    
Growing Degree Days 28 (Base 50)    
Moisture  
Dew Point 71 °F    
Average Humidity 83    
Maximum Humidity 94    
Minimum Humidity 74    
Precipitation  
Precipitation 0.00 in 0.06 in - ()
Sea Level Pressure  
Sea Level Pressure 30.10 in    
Wind  
Wind Speed 8 mph ()    
Max Wind Speed 14 mph    
Max Gust Speed -    
Visibility 6.7 miles    
Events      
Averages and records for this station are not official NWS values.
T = Trace of Precipitation, MM = Missing Value Source: Averaged Metar Reports

Daily Weather History Graph

Daily Weather History Graph

Search for Another Location

Airport:

Trip Planner

Search our weather history database for the weather conditions in past years. The results will help you decide how hot, cold, wet, or windy it might be!

Date:

Astronomy

Dec. 17, 2013 Rise Set
Actual Time 6:48 AM EST 5:23 PM EST
Civil Twilight 6:23 AM EST 5:48 PM EST
Nautical Twilight 5:55 AM EST 6:17 PM EST
Astronomical Twilight 5:26 AM EST 6:45 PM EST
Moon 5:55 PM EST (12/17) 6:48 AM EST (12/17)
Length of Visible Light 11h 25m
Length of Day
10h 35m
Full, 100% of the Moon is Illuminated
Dec 17
Full
Dec 25
Last Quarter
Jan 1
New
Jan 7
First Quarter
Jan 15
Full

Hourly Weather History & Observations

Time (EST) Temp. Dew Point Humidity Pressure Visibility Wind Dir Wind Speed Gust Speed Precip Events Conditions
2:00 AM 73.4 °F 71.6 °F 94% 30.11 in 6.2 mi North 10.4 mph - N/A   Mostly Cloudy
3:00 AM 73.4 °F 71.6 °F 94% 30.11 in 6.2 mi North 10.4 mph - N/A   Mostly Cloudy
4:00 AM 75.2 °F 69.8 °F 83% 30.07 in 6.2 mi Calm Calm - N/A   Mostly Cloudy
5:00 AM 73.4 °F 69.8 °F 88% 30.08 in - North - - N/A   Mostly Cloudy
6:00 AM 75.2 °F 69.8 °F 83% 30.09 in 6.2 mi NNE 5.8 mph - N/A   Mostly Cloudy
7:00 AM 75.2 °F 73.4 °F 94% 30.11 in 6.2 mi North 9.2 mph - N/A   Mostly Cloudy
8:00 AM 75.2 °F 69.8 °F 83% 30.12 in 6.2 mi NNE 10.4 mph - N/A   Mostly Cloudy
9:00 AM 75.2 °F 69.8 °F 83% 30.14 in 6.2 mi NE 11.5 mph - N/A   Mostly Cloudy
10:00 AM 79 °F 74 °F 79% 30.16 in 8 mi NNE 11.5 mph - -   Partly Cloudy
10:00 AM 78.8 °F 73.4 °F 83% 30.16 in 6.2 mi NNE 11.5 mph - N/A   Mostly Cloudy
11:00 AM 78.8 °F 69.8 °F 74% 30.13 in 6.2 mi ENE 13.8 mph - N/A   Mostly Cloudy
12:00 PM 78.8 °F 69.8 °F 74% 30.11 in 6.2 mi NNE 11.5 mph - N/A   Mostly Cloudy
1:00 PM 78 °F 73 °F 82% 30.08 in 9 mi North 11.5 mph - -   Mostly Cloudy
1:00 PM 78.8 °F 73.4 °F 83% 30.08 in 6.2 mi North 11.5 mph - N/A   Mostly Cloudy
2:00 PM 77.0 °F 69.8 °F 78% 30.06 in 6.2 mi NNE 11.5 mph - N/A   Mostly Cloudy
3:00 PM 77.0 °F 69.8 °F 78% 30.06 in 6.2 mi NNE 12.7 mph - N/A   Mostly Cloudy
4:00 PM 78 °F 72 °F 75% 30.06 in 9 mi North 13.8 mph - -   Mostly Cloudy
4:00 PM 78.8 °F 71.6 °F 78% 30.05 in 6.2 mi North 13.8 mph - N/A   Mostly Cloudy
5:00 PM 77.0 °F 69.8 °F 78% 30.06 in 6.2 mi NNE 9.2 mph - N/A   Mostly Cloudy
6:00 PM 75.2 °F 69.8 °F 83% 30.06 in 6.2 mi ENE 8.1 mph - N/A   Mostly Cloudy
7:00 PM 76 °F 72 °F 83% 30.09 in 9 mi North 6.9 mph - -   Partly Cloudy
7:00 PM 75.2 °F 71.6 °F 89% 30.09 in 6.2 mi North 6.9 mph - N/A   Mostly Cloudy
8:00 PM 75.2 °F 69.8 °F 83% 30.10 in 6.2 mi North 6.9 mph - N/A   Mostly Cloudy
9:00 PM 75.2 °F 69.8 °F 83% 30.11 in 6.2 mi North 8.1 mph - N/A   Scattered Clouds
10:00 PM 75 °F 72 °F 87% 30.12 in 9 mi NNE 6.9 mph - -   Partly Cloudy
10:00 PM 75.2 °F 71.6 °F 89% 30.11 in 6.2 mi NNE 6.9 mph - N/A   Scattered Clouds
11:00 PM 75.2 °F 69.8 °F 83% 30.11 in 6.2 mi NNE 6.9 mph - N/A   Scattered Clouds